Wind_Speed
9 14 20 30 33 36 35 31 28 28 27 25 23 24 25 24 24 27 34 37 35 39 39 36 32 29 24 20 20 21 24 22 18 15 13 8 10 14 16 18 20 16 13
19 14 17 23 31 34 33 30 32 31 30 27 23 20 23 28 29 36 42 36 35 35 37 39 33 28 24 20 19 19 20 20 19 16 11 10 9 5 6 8 11 13 14
11 12 13 16 21 28 28 31 30 31 30 30 26 19 24 32 39 41 30 28 25 24 26 28 26 19 17 15 13 14 15 16 19 21 14 12 10 11 11 10 13 15 17
11 11 12 14 19 23 27 31 32 29 29 31 30 44 40 59 36 26 20 14 16 17 10 13 17 14 9 9 9 9 10 13 12 11 11 15 15 14 12 10 9 11 13
11 13 13 16 21 26 27 30 30 31 32 35 35 32 36 30 23 17 12 8 12 13 16 8 14 10 10 14 14 11 9 8 11 13 16 18 17 13 9 13 13 15 16
18 20 18 16 18 21 23 25 22 23 27 26 22 28 21 16 14 12 7 9 11 10 10 5 5 8 8 10 11 11 8 7 8 12 14 14 15 16 16 16 17 17 12
14 16 15 16 17 18 17 19 21 22 22 26 25 23 20 17 16 13 11 12 10 8 7 4 4 6 8 7 7 7 7 4 5 7 8 8 11 14 17 16 19 19 19
16 14 16 16 15 19 21 24 22 26 25 23 23 24 20 17 16 17 17 16 15 14 12 10 7 7 6 5 4 4 3 4 4 6 7 8 9 12 15 19 20 21 21
23 21 17 18 17 27 31 25 23 22 21 23 24 21 17 13 13 15 13 12 12 11 10 9 7 5 4 4 3 4 6 7 8 10 10 12 13 14 14 14 12 12 10
24 24 22 21 21 29 30 29 26 25 25 24 20 17 14 14 14 14 12 12 12 10 9 8 6 5 4 3 3 3 6 7 7 9 9 8 8 8 8 7 7 6 7
28 26 27 26 26 28 33 31 24 28 28 24 23 19 15 14 14 13 12 12 12 10 7 5 3 3 2 2 2 2 3 3 1 0 0 1 2 4 6 7 9 10 11
31 25 30 31 32 28 30 26 26 30 30 30 25 20 16 16 15 14 13 10 9 7 6 4 3 4 5 7 7 8 8 7 5 3 3 5 9 12 15 17 19 18 18
29 22 26 28 30 28 29 29 30 30 33 31 28 23 22 20 19 15 10 7 6 6 7 8 10 11 12 11 9 6 5 4 4 5 5 7 12 15 16 15 15 18 17
25 21 23 26 27 25 28 33 32 34 35 28 24 25 23 21 18 13 7 7 7 9 12 12 11 9 7 7 5 4 5 6 7 6 6 8 9 10 10 11 11 12 13
6 12 19 19 23 29 32 33 36 34 26 24 25 24 23 19 15 11 10 10 10 10 10 8 5 5 5 6 6 8 8 8 7 8 6 7 8 10 9 9 12 14 13
29 29 29 29 28 24 26 18 24 18 18 16 16 15 16 13 12 12 11 9 8 8 7 5 3 2 2 2 5 8 7 8 10 9 8 8 9 9 9 9 10 11 12
36 37 37 34 32 28 28 15 20 20 21 19 18 15 13 12 11 10 9 7 5 4 4 4 3 2 2 3 7 8 6 8 10 8 7 6 7 8 10 9 9 10 12
32 30 30 32 31 32 22 19 20 23 25 22 17 14 12 11 10 9 6 3 0 2 5 6 7 5 4 5 9 9 8 9 7 6 5 4 5 6 7 9 9 9 9
24 26 26 27 26 28 20 15 14 14 16 15 13 12 11 10 8 7 8 6 5 7 8 8 9 8 8 8 11 11 8 8 7 6 5 5 5 6 6 7 8 11 11
23 21 20 20 18 17 17 15 13 12 13 12 11 9 10 10 11 12 11 11 10 9 8 8 10 10 9 9 10 9 8 7 6 5 5 6 6 8 8 8 9 10 10
9 12 15 15 13 11 11 11 12 12 12 13 11 10 8 8 8 10 10 11 11 9 9 10 10 11 11 8 8 9 8 7 7 6 6 6 7 7 10 10 12 12 12
7 7 8 7 6 6 7 8 9 10 9 9 9 8 8 10 9 9 9 9 7 9 10 10 10 11 10 8 8 7 8 7 8 8 8 8 9 10 12 13 14 15 15
8 8 7 7 4 2 2 2 5 7 6 5 3 5 5 5 5 5 6 7 5 5 6 7 10 11 12 11 10 10 11 12 10 11 13 13 13 13 13 15 16 16 16
6 5 7 7 5 5 5 5 6 5 5 5 4 3 2 4 4 3 3 5 6 7 6 8 9 10 12 14 16 17 18 17 17 17 18 20 18 17 20 19 19 20 19
7 5 5 3 3 2 3 4 4 4 4 4 4 4 5 5 5 5 6 7 8 10 11 12 14 15 18 21 23 23 25 26 25 25 25 26 27 26 28 28 27 24 24
5 4 4 5 4 3 2 1 2 2 1 1 2 3 6 8 8 8 9 11 13 15 18 18 17 18 21 24 25 24 22 22 22 21 26 30 33 33 33 35 37 36 34
Wind_Direction
316 287 279 273 267 260 254 250 249 250 251 249 252 256 262 268 269 282 290 287 283 274 274 266 260 259 257 250 260 265 266 261 250 259 272 248 250 245 238 245 236 242 255
334 301 289 280 272 262 256 252 247 242 242 243 247 256 273 281 296 305 299 293 288 280 266 257 250 241 243 243 253 263 266 254 244 250 243 256 280 289 282 255 247 257 273
346 317 290 275 263 260 257 252 249 245 240 236 230 242 273 299 301 306 300 300 300 285 280 254 240 223 229 238 254 263 253 237 242 255 258 257 272 291 302 297 289 282 280
327 303 288 276 270 264 257 249 244 243 238 243 249 258 268 263 286 292 297 318 312 281 213 199 195 200 230 252 264 257 236 224 234 248 260 281 285 282 309 314 306 295 293
333 321 304 277 268 264 260 252 247 248 254 262 258 240 232 233 266 277 292 308 269 263 261 243 205 235 271 273 246 209 213 231 249 263 268 293 287 302 315 312 312 309 305
319 315 305 290 276 264 259 256 251 250 246 231 214 216 226 236 247 252 243 253 260 263 267 245 227 217 217 208 212 208 226 251 266 267 272 272 277 305 312 311 312 309 314
317 312 306 294 280 266 250 245 238 233 221 216 236 237 234 235 248 242 239 243 240 226 219 233 199 204 216 218 209 205 212 222 262 265 269 270 274 281 290 294 298 303 309
299 296 292 288 272 252 240 216 219 218 228 231 222 222 218 229 240 240 239 234 236 234 234 219 207 189 165 158 164 175 203 239 253 262 270 275 281 285 289 296 300 302 304
290 285 278 271 260 232 211 213 235 225 221 218 222 221 216 221 210 204 206 212 210 202 191 182 179 180 182 180 218 255 258 255 260 263 267 275 280 284 287 294 305 318 323
277 267 262 258 247 225 226 230 237 234 217 203 194 192 184 176 186 182 177 192 186 180 175 174 185 194 188 186 194 220 254 261 272 282 288 284 280 278 286 297 305 329 322
284 264 255 246 242 238 233 250 237 211 197 186 179 174 170 162 165 159 164 179 174 167 171 171 200 224 215 202 229 228 223 255 266 262 2 337 318 313 308 306 308 310 309
286 263 244 246 240 233 236 235 215 200 193 178 172 164 159 153 153 153 154 159 151 165 180 160 154 151 135 118 115 114 107 95 83 65 29 316 300 297 296 298 299 299 300
275 254 242 248 233 233 234 217 200 200 177 166 162 156 150 142 140 142 146 156 166 170 135 115 115 119 110 103 97 88 69 50 355 332 321 310 300 297 302 306 307 303 302
267 237 229 227 218 231 215 197 189 187 173 164 156 156 154 150 159 158 160 153 150 138 128 122 111 102 91 73 51 3 341 337 334 332 329 322 326 328 326 324 328 326 323
224 193 217 219 223 221 208 193 186 180 161 160 163 165 163 167 162 165 152 142 139 132 122 126 141 121 93 72 35 359 348 346 343 338 342 339 338 333 331 330 329 330 326
118 127 111 105 107 100 102 102 112 122 126 151 159 162 165 169 164 155 144 135 134 124 114 135 137 135 91 21 8 350 342 339 333 340 335 333 331 330 325 328 326 324 328
93 100 104 103 106 90 95 87 99 110 120 124 134 148 156 151 156 157 151 150 153 167 183 201 209 232 295 340 342 331 318 319 333 336 329 315 315 323 329 318 316 327 336
87 96 99 99 99 104 112 139 137 140 133 133 140 140 138 147 154 160 178 179 83 296 243 237 236 250 271 309 320 318 309 309 307 327 326 317 319 312 316 317 327 347 341
97 101 102 105 109 118 129 141 144 136 128 135 152 161 175 188 192 210 234 241 255 266 250 242 234 255 260 288 308 306 285 284 289 297 311 320 308 307 307 318 328 332 338
104 98 103 108 118 128 132 144 163 180 180 173 183 194 209 223 234 243 250 253 261 270 250 240 236 250 251 279 298 302 293 282 285 294 297 298 298 307 314 310 311 315 319
128 130 129 137 145 146 151 172 189 192 197 200 196 202 209 221 234 237 235 246 254 261 256 244 241 248 249 282 308 307 297 283 289 290 289 296 306 306 311 315 320 320 315
152 140 147 150 162 172 187 196 204 212 216 211 207 214 223 232 234 236 242 239 260 260 245 261 252 255 252 281 300 310 315 300 280 279 288 298 305 302 305 311 313 313 312
135 128 124 133 138 184 188 212 186 164 159 175 217 239 213 208 225 241 234 225 265 258 269 278 283 281 265 272 286 296 310 313 300 290 283 283 286 288 294 304 306 304 304
130 126 145 139 106 81 89 102 120 138 146 148 136 140 204 228 234 247 252 251 271 271 288 304 300 296 280 276 276 279 280 284 286 286 282 278 276 278 288 293 294 289 288
150 134 139 153 169 141 147 145 147 148 171 203 225 228 233 247 261 276 283 287 289 288 288 290 294 298 297 291 284 280 280 278 277 274 273 275 276 277 278 279 279 278 281
158 153 132 116 105 90 85 163 213 220 227 265 293 299 286 282 279 281 284 285 288 292 290 288 294 302 301 299 294 289 287 285 281 278 276 274 276 279 279 279 280 279 280
Height
1487 1490 1489 1491 1493 1496 1499 1501 1506 1509 1512 1514 1517 1520 1522 1522 1519 1519 1519 1516 1513 1513 1512 1511 1513 1516 1516 1518 1520 1520 1520 1520 1521 1523 1521 1521 1522 1524 1525 1526 1528 1530 1530
1480 1484 1485 1484 1486 1486 1489 1493 1497 1501 1503 1506 1510 1515 1516 1517 1516 1511 1508 1505 1500 1499 1501 1500 1504 1507 1510 1513 1514 1514 1515 1516 1517 1518 1518 1518 1518 1519 1521 1523 1524 1525 1525
1476 1479 1479 1478 1480 1481 1482 1485 1488 1492 1494 1495 1499 1502 1508 1509 1511 1507 1501 1496 1491 1492 1492 1492 1496 1500 1504 1506 1508 1509 1510 1511 1512 1514 1516 1515 1515 1516 1517 1516 1518 1519 1521
1474 1476 1477 1473 1474 1476 1476 1478 1479 1483 1486 1489 1489 1487 1491 1499 1503 1502 1498 1493 1492 1490 1489 1488 1490 1494 1498 1501 1503 1506 1507 1507 1509 1511 1511 1510 1510 1512 1512 1513 1515 1516 1517
1474 1473 1472 1470 1469 1470 1471 1472 1474 1476 1477 1480 1479 1483 1487 1486 1491 1495 1494 1493 1494 1492 1490 1485 1486 1490 1493 1495 1500 1503 1506 1504 1506 1507 1507 1505 1503 1506 1507 1508 1511 1512 1514
1470 1468 1466 1465 1465 1465 1466 1468 1469 1471 1472 1475 1479 1483 1484 1480 1485 1490 1491 1493 1493 1491 1491 1489 1488 1490 1492 1496 1496 1497 1499 1501 1502 1503 1502 1500 1501 1499 1501 1505 1506 1507 1509
1468 1466 1463 1462 1461 1460 1462 1463 1465 1467 1469 1472 1475 1478 1477 1478 1478 1486 1488 1492 1492 1490 1491 1490 1490 1492 1492 1493 1493 1494 1496 1498 1499 1501 1500 1500 1499 1500 1502 1503 1504 1504 1499
1463 1462 1461 1459 1459 1459 1459 1460 1462 1465 1466 1470 1471 1476 1472 1473 1473 1481 1486 1490 1490 1489 1490 1490 1491 1493 1492 1493 1494 1494 1495 1497 1498 1501 1500 1500 1500 1500 1501 1502 1500 1498 1498
1458 1456 1456 1455 1455 1454 1455 1458 1460 1461 1463 1465 1467 1473 1471 1472 1475 1480 1483 1486 1488 1489 1489 1489 1490 1491 1492 1492 1493 1494 1495 1496 1496 1497 1497 1497 1497 1496 1497 1498 1498 1498 1498
1450 1449 1448 1447 1449 1450 1452 1454 1457 1458 1460 1463 1467 1473 1474 1472 1480 1480 1481 1486 1488 1489 1490 1490 1492 1492 1490 1489 1490 1492 1494 1495 1495 1496 1496 1496 1495 1492 1492 1493 1493 1494 1495
1440 1440 1440 1440 1440 1443 1444 1447 1448 1451 1456 1460 1464 1470 1473 1474 1477 1481 1483 1486 1487 1488 1490 1490 1490 1491 1488 1487 1488 1491 1491 1494 1493 1494 1495 1496 1496 1495 1493 1493 1493 1492 1491
1427 1427 1429 1432 1433 1434 1437 1439 1441 1444 1449 1452 1459 1463 1469 1470 1474 1481 1483 1486 1486 1487 1489 1487 1487 1489 1487 1485 1487 1488 1489 1492 1495 1495 1495 1496 1495 1494 1493 1492 1490 1488 1487
1412 1415 1419 1423 1426 1429 1431 1433 1435 1439 1437 1443 1451 1458 1466 1469 1475 1480 1482 1485 1487 1488 1486 1486 1489 1490 1485 1485 1489 1492 1490 1491 1494 1496 1493 1493 1492 1490 1489 1488 1485 1482 1480
1397 1403 1411 1415 1420 1425 1428 1428 1430 1435 1438 1444 1448 1458 1466 1470 1477 1480 1483 1484 1487 1487 1485 1488 1488 1489 1488 1487 1489 1491 1490 1489 1490 1491 1490 1488 1488 1487 1486 1484 1483 1481 1478
1391 1400 1406 1411 1417 1423 1423 1424 1425 1432 1436 1444 1453 1460 1466 1474 1474 1479 1481 1484 1486 1486 1487 1488 1491 1489 1489 1488 1489 1491 1490 1487 1488 1487 1486 1486 1486 1486 1484 1482 1481 1479 1476
1401 1402 1408 1415 1416 1427 1427 1433 1418 1433 1442 1450 1457 1463 1469 1474 1475 1479 1480 1484 1484 1486 1488 1490 1490 1491 1488 1489 1488 1489 1488 1486 1486 1482 1483 1481 1482 1482 1480 1478 1477 1476 1473
1421 1419 1417 1421 1427 1428 1429 1442 1434 1437 1446 1453 1459 1468 1472 1473 1478 1481 1482 1483 1485 1486 1487 1489 1490 1489 1489 1487 1487 1488 1487 1484 1482 1482 1480 1481 1482 1480 1478 1479 1474 1470 1467
1436 1437 1433 1431 1433 1427 1441 1455 1456 1456 1457 1461 1466 1468 1471 1477 1480 1481 1483 1484 1483 1485 1487 1488 1489 1488 1487 1486 1486 1486 1485 1484 1483 1480 1479 1477 1477 1476 1476 1476 1471 1465 1466
1448 1448 1448 1446 1446 1448 1454 1457 1462 1464 1462 1463 1466 1470 1474 1477 1477 1479 1482 1483 1483 1486 1486 1486 1486 1485 1485 1485 1485 1484 1482 1481 1479 1476 1474 1475 1476 1476 1474 1471 1467 1465 1462
1454 1455 1458 1457 1458 1460 1462 1464 1465 1466 1465 1465 1470 1471 1472 1475 1477 1479 1481 1482 1483 1483 1483 1483 1484 1484 1483 1483 1483 1480 1479 1478 1476 1474 1473 1474 1474 1472 1469 1467 1466 1464 1461
1460 1460 1461 1463 1463 1463 1464 1465 1466 1466 1466 1468 1467 1469 1472 1474 1477 1479 1480 1481 1481 1481 1480 1480 1481 1482 1482 1479 1477 1477 1476 1474 1472 1473 1471 1471 1469 1467 1466 1463 1461 1459 1457
1462 1463 1463 1464 1465 1466 1466 1466 1466 1466 1464 1464 1466 1468 1471 1474 1476 1477 1477 1478 1477 1477 1477 1477 1478 1477 1478 1476 1474 1474 1473 1470 1469 1469 1469 1466 1465 1464 1463 1460 1457 1456 1454
1464 1464 1464 1465 1465 1465 1464 1463 1462 1463 1464 1465 1467 1468 1470 1472 1473 1474 1474 1474 1475 1475 1474 1473 1473 1472 1471 1471 1472 1471 1471 1469 1465 1464 1465 1462 1461 1460 1458 1456 1454 1453 1452
1466 1466 1466 1466 1466 1465 1464 1464 1463 1464 1465 1467 1468 1468 1470 1471 1473 1472 1472 1472 1472 1471 1470 1470 1471 1470 1468 1467 1465 1465 1464 1463 1462 1459 1459 1457 1455 1453 1452 1450 1449 1448 1446
1467 1467 1467 1467 1467 1467 1467 1467 1467 1466 1468 1468 1469 1469 1469 1469 1469 1469 1469 1468 1468 1468 1467 1465 1465 1464 1463 1462 1460 1458 1456 1457 1455 1453 1451 1449 1447 1445 1444 1443 1441 1440 1439
1466 1467 1467 1466 1466 1466 1466 1467 1467 1466 1466 1466 1467 1466 1466 1466 1466 1465 1464 1463 1464 1462 1462 1459 1457 1455 1456 1456 1454 1451 1449 1448 1446 1444 1441 1440 1438 1436 1435 1433 1432 1431 1430